Home   Weather   Atascadero   Past weeks

Flag for USA Past Weather in Atascadero, California, USA — Yesterday and Last 2 Weeks

Now
45 °F

Passing clouds.


Feels Like: 44 °F
Forecast: 37 / 53 °F
Wind: 3 mph from East

Location: San Luis Obispo County-Mc Chesney Field

Current Time: Jan 24, 2017 at 3:40:03 am

Latest Report: Jan 24, 2017 at 2:56 am


Visibility: 10 mi

Pressure: 29.96 "Hg

Humidity: 86%

Dew Point: 41 °F

Location of AtascaderoLocation

Past Weather in Atascadero — Graph

°F

Atascadero Temperature Yesterday

Maximum temperature yesterday: 54 °F (at 12:56 am)
Minimum temperature yesterday: 42 °F (at 9:56 pm)
Average temperature yesterday: 49 °F

High & Low Weather Summary for the Past Weeks

 TemperatureHumidityPressure
High67 °F (Jan 14, 1:56 pm)96% (Jan 9, 3:56 am)30.18 "Hg (Jan 9, 3:56 am)
Low36 °F (Jan 16, 5:56 am)37% (Jan 14, 3:56 pm)29.45 "Hg (Jan 20, 2:02 pm)
Average53 °F78%29.96 "Hg
* Reported Jan 9 1:26 am — Jan 24 1:56 am, Atascadero, Weather by CustomWeather, © 2017

Note: Actual official high and low records may vary slightly from our data, if they occured in-between our weather recording intervals... More about our weather records

Advertising

Atascadero Weather History for the Previous 24 Hours

Scroll right to see more
 ConditionsComfort  
Time TempWeatherWind HumidityBarometerVisibility
1:56 am
Tue, Jan 24
44 °FPassing clouds.5 mph89%29.96 "Hg10 mi
12:56 am45 °FMostly cloudy.3 mph86%29.95 "Hg10 mi
11:56 pm
Mon, Jan 23
45 °FLight rain. Overcast.8 mph90%29.97 "Hg8 mi
11:25 pm46 °FLight rain. Overcast.13 mph83%29.98 "Hg8 mi
10:56 pm43 °FPartly cloudy.14 mph86%29.98 "Hg10 mi
9:56 pm42 °FClear.5 mph85%29.95 "Hg10 mi
8:56 pm43 °FClear.No wind86%29.94 "Hg10 mi
7:56 pm45 °FClear.No wind82%29.93 "Hg10 mi
6:56 pm46 °FClear.No wind83%29.92 "Hg10 mi
5:56 pm49 °FClear.3 mph77%29.91 "Hg10 mi
4:56 pm52 °FScattered clouds.8 mph69%29.90 "Hg10 mi
3:56 pm54 °FSunny.10 mph62%29.90 "Hg10 mi
2:56 pm54 °FPartly sunny.12 mph64%29.88 "Hg10 mi
1:56 pm53 °FSunny.No wind69%29.88 "Hg10 mi
1:06 pm51 °FBroken clouds.7 mph74%29.89 "Hg10 mi
12:56 pm50 °FLight rain. Cloudy.9 mph77%29.90 "Hg7 mi
11:56 am52 °FSunny.6 mph75%29.90 "Hg10 mi
10:56 am51 °FBroken clouds.3 mph74%29.91 "Hg10 mi
9:56 am49 °FPassing clouds.3 mph84%29.90 "Hg10 mi
8:56 am47 °FRain. Fog.No wind86%29.89 "Hg4 mi
7:56 am45 °FSunny.3 mph90%29.86 "Hg10 mi
6:56 am46 °FPassing clouds.No wind86%29.85 "Hg10 mi
5:56 am48 °FRain. Overcast.5 mph80%29.84 "Hg5 mi
4:56 am49 °FOvercast.3 mph80%29.81 "Hg10 mi
3:56 am50 °FMostly cloudy.6 mph80%29.82 "Hg10 mi
Weather by CustomWeather, © 2017

See weather overviewHow to use our weather pages